Regional Weather Roundup
Issued by NWS

Home | Current Version | Previous Version | Graphics & Text | Print | Product List | Glossary On
Versions: 1 2 3 4 5 6 7 8 9 10 11 12 13 14 15 16 17 18 19 20 21 22 23 24 25 26 27 28 29 30 31 32 33 34 35 36 37 38 39 40 41 42 43 44 45 46 47 48 49 50
000
ASUS43 KIND 251509
RWRIN

WEATHER ROUNDUP FOR INDIANA
NATIONAL WEATHER SERVICE INDIANAPOLIS IN
1100 AM EDT SAT OCT 25 2014

NOTE: "FAIR" INDICATES FEW OR NO CLOUDS BELOW 12,000 FEET WITH NO
SIGNIFICANT WEATHER AND/OR OBSTRUCTIONS TO VISIBILITY.

* - STATION DOES NOT REPORT WEATHER SUCH AS PRECIPITATION OR FOG.

+ - STATION NOT QUALITY CONTROLLED BY THE NATIONAL WEATHER SERVICE.
    USE DATA WITH CAUTION...ESPECIALLY DEWPOINT AND RELATIVE
    HUMIDITY OBSERVATIONS.

INZ001>003-010>013-019-020-251600-
NORTHWEST INDIANA

CITY           SKY/WX    TMP DP  RH WIND       PRES   REMARKS
GARY /AIRPORT/ MOSUNNY   63  55  77 W9        29.95R FOG
KNOX *+        CLOUDY    53  52  94 W8        29.94R
LA PORTE +     PTSUNNY  N/A N/A N/A W8        29.94S FOG
MICHIGAN CITY+ MOSUNNY   59  55  88 W6        29.93S FOG
MONTICELLO +   SUNNY     58  55  88 W10       29.95S
RENSSELAER +   CLOUDY    55  55 100 W10       29.97R FOG
VALPARAISO     MOSUNNY   58  54  86 W9        29.95R FOG

$$

LMZ046-743>745-251600-
SOUTHERN LAKE MICHIGAN

STATION/POSITION TIME  TEMP WIND        PRES
                       AIR  DIR/SP/G
                 (UTC) (F)  (DEG/KT/KT) (MB)
MICHIGAN CITY    1500   57  220/ 14/ 15   N/A

$$

INZ004-005-014>016-021>024-251600-
NORTH CENTRAL INDIANA

CITY           SKY/WX    TMP DP  RH WIND       PRES   REMARKS
ELKHART        CLOUDY    55  54  94 W9        29.92S FOG
GOSHEN         CLOUDY    56  53  90 W12       29.91S FOG
LOGANSPORT +   SUNNY     59  54  82 W9        29.95F
PERU/GRISSOM   SUNNY     60  60 100 W13       29.94S
ROCHESTER +    SUNNY     61  55  82 W9        29.93S HAZE
SOUTH BEND     CLOUDY    58  54  86 W6        29.93S FOG
WARSAW +       SUNNY     59  54  82 W8        29.92S FOG

$$

INZ006>009-017-018-025>027-251600-
NORTHEAST INDIANA

CITY           SKY/WX    TMP DP  RH WIND       PRES   REMARKS
ANGOLA *+      CLOUDY    55  48  76 W10       29.89S
AUBURN +       MOSUNNY   59  52  77 W10G16    29.91S
FORT WAYNE     PTSUNNY   61  53  75 W14       29.92F
HUNTINGTON +   SUNNY    N/A N/A N/A W12       29.92F

$$

INZ028-029-035-036-043>045-051>053-251600-
WEST CENTRAL INDIANA

CITY           SKY/WX    TMP DP  RH WIND       PRES   REMARKS
GREENCASTLE +  SUNNY     61  54  77 W3        30.00S
LAFAYETTE      SUNNY     59  55  87 W8        29.96F
TERRE HAUTE    SUNNY     62  55  77 NW5       30.00S

$$

INZ030>032-037>040-046>048-054>057-064-065-251600-
CENTRAL INDIANA

CITY           SKY/WX    TMP DP  RH WIND       PRES   REMARKS
ANDERSON       SUNNY     61  52  72 SW10      29.97F
CP ATTERBURY + CLOUDY    61  54  77 W8        30.00S
FRANKFORT +    SUNNY     62  55  79 SW8       29.98F
INDIANAPOLIS   MOSUNNY   61  54  77 W9        29.98R
-EAGLE CREEK   SUNNY     62  54  74 W9        29.98R
KOKOMO *+      SUNNY     61 N/A N/A W12       29.95S
MARION +       SUNNY     61  53  75 W10       29.95F
MT COMFORT *+  SUNNY     63  52  67 W9        29.98S
SHELBYVILLE    CLOUDY    62  54  74 W7        29.98S
ZIONSVILLE +   SUNNY     63  53  71 W10       29.97F

$$

INZ033-034-041-042-049-050-058-059-251600-
EAST CENTRAL INDIANA

CITY           SKY/WX    TMP DP  RH WIND       PRES   REMARKS
MUNCIE         SUNNY     62  53  72 W9        29.95S

$$

INZ060-061-067>069-081>083-085>088-251600-
SOUTHWEST INDIANA

CITY           SKY/WX    TMP DP  RH WIND       PRES   REMARKS
EVANSVILLE     MOSUNNY   65  57  75 W9        30.04S
HUNTINGBURG *+ PTSUNNY   63  55  77 W7        30.04R
WASHINGTON +   SUNNY     64  58  80 W8        30.01S

$$

INZ062-063-066-070>080-084-089>092-251600-
SOUTH CENTRAL AND SOUTHEAST INDIANA

CITY           SKY/WX    TMP DP  RH WIND       PRES   REMARKS
BEDFORD +      MOSUNNY   63  55  77 W5        30.01S
BLOOMINGTON    CLOUDY    61  55  81 VRB5      30.01S
SEYMOUR +      CLOUDY    63  55  77 SW6       30.01

$$




USA.gov is the U.S. government's official web portal to all federal, state and local government web resources and services.